Location: Newark
(45.6439°N, 0.5436°E)
Time: 21:11:52
(UTC+00:00)

N. Korean satellite - Pass Details

Date: 24 November 2019
Orbit: 456 x 506 km, 97.2° (Epoch: 09 December)

Event Time Altitude Azimuth Distance (km) Brightness Sun altitude
Rises 05:33:31 0° 17° (NNE) 2,608 10.3 -16.3°
Reaches altitude 10° 05:35:41 10° 24° (NNE) 1,713 9.5 -16.0°
Maximum altitude 05:39:15 47° 99° (E) 665 7.7 -15.4°
Drops below altitude 10° 05:42:45 10° 174° (S) 1,673 9.5 -14.8°
Sets 05:44:50 0° 180° (S) 2,539 10.4 -14.4°
